NUSAT-11 (CORA) (46829 NORAD) Tracking and Keplerian Element Data
This shows tracking and keplerian element data for the satellite.
Feedback or suggestion? Click here.
Element | Value |
Catalog | 46829 |
Name | NUSAT-11 (CORA) |
Epoch Orbit | 1155 |
Epoch Day | 20.69523369 |
Epoch Year | 2021 |
RAAN | 97.335 |
Inclination | 97.2562 |
Eccentricity | 0.0010131 |
Argument of Perigee | 352.6776 |
Mean Anonmoly | 165.841 |
Mean Motion | 15.31952792 |
Decay Rate | 0.00097081 |
L1 | 1 46829U 20079C 21020.69523369 .00097081 00000-0 31085-2 0 9999 |
L2 | 2 46829 97.2562 97.3350 0010131 352.6776 165.8410 15.31952792 11552 |
Live tracking and technical data element details for NUSAT-11 (CORA) (NORAD 46829). NUSAT-11 (CORA) can be tracked NOW for your location showing map with azimuth and elevation plus other details from your city location.
Track the satellite on the map from your city or location and see movement details for azimuth, elevation, latitude, longitude, range, height, and movement on the map or in text.
IsCatalogInMostPopularTable: catalog: 46829, numindb: 34
Update: records affected: 1
GetName: 46829 NUSAT-11 (CORA)
Hit Count: updated at: Fri, 22 Jan 2021 18:12:49 GMT